Starlink 35234

operational
NORAD ID: 65601 Int'l Des: 2025-207 Owner: SPXS Country: US Constellation: starlink
NOTLE

Starlink 35234について

説明を読み込み中...

リアルタイム位置

3D地球を読み込み中...

次回通過

高度履歴

Altitude vs Time

uPlot chart will show altitude changes over time

軌道要素

1 65601U 25207K 25308.44034786 .00023416 00000-0 60024-3 0 9999
2 65601 97.6047 12.6983 0002984 107.4870 252.6701 15.39366796 9256
Epoch: Nov 4, 2025 • Age: 14 hours

現在のステータス

高度 461.1 km
速度 7.63 km/s
衛星直下点 -30.94°S, 33.75°W
打ち上げ日 Sep 13, 2025
運用期間 0.1 years
タイプ internet

技術仕様

分類 Payload
質量 575.00 kg
乾燥質量 530.00 kg
総質量 575.00 kg
長さ 0.30 m
直径 4.10 m
スパン 29.00 m
形状 Box + pan
製造者 SPXS
バスタイプ Starlink V2MO
フェーズステータス In Orbit
所有者/国 SPXS/US

大規模コンステレーション

Loading constellations...